QPF
0.00 0.00 0.00 0.00 0.00 0.00 0.00 0.00 0.00 0.00 0.00 0.00 0.00 0.00 0.00 0.00 0.00 0.00 0.00 0.00 0.00 0.00 0.00 0.00 0.00 0.00 0.00 0.00 0.00 0.00 0.00 0.00 0.00 0.00 0.01 0.03 0.01 0.00 0.00 0.00 0.00 0.00 0.00
0.00 0.00 0.00 0.00 0.00 0.00 0.00 0.00 0.00 0.00 0.00 0.00 0.00 0.00 0.00 0.00 0.00 0.00 0.00 0.00 0.00 0.00 0.00 0.00 0.00 0.00 0.00 0.00 0.00 0.00 0.00 0.00 0.00 0.00 0.00 0.00 0.00 0.00 0.00 0.00 0.00 0.00 0.00
0.00 0.00 0.00 0.00 0.00 0.00 0.00 0.00 0.00 0.00 0.00 0.00 0.00 0.00 0.00 0.00 0.00 0.00 0.00 0.00 0.00 0.00 0.00 0.00 0.00 0.00 0.00 0.00 0.00 0.00 0.00 0.00 0.00 0.00 0.00 0.00 0.00 0.00 0.00 0.00 0.00 0.00 0.00
0.00 0.00 0.00 0.00 0.00 0.00 0.00 0.00 0.00 0.00 0.00 0.00 0.00 0.00 0.00 0.00 0.00 0.00 0.00 0.00 0.00 0.00 0.00 0.00 0.00 0.00 0.00 0.00 0.00 0.00 0.00 0.00 0.00 0.00 0.00 0.00 0.00 0.00 0.00 0.00 0.00 0.00 0.00
0.02 0.00 0.00 0.00 0.01 0.01 0.03 0.00 0.00 0.00 0.00 0.00 0.00 0.00 0.00 0.00 0.00 0.00 0.00 0.00 0.00 0.00 0.00 0.00 0.00 0.00 0.00 0.00 0.00 0.00 0.00 0.00 0.00 0.00 0.00 0.00 0.00 0.00 0.00 0.00 0.00 0.00 0.00
0.01 0.00 0.00 0.01 0.04 0.08 0.04 0.00 0.00 0.00 0.00 0.00 0.00 0.00 0.00 0.00 0.00 0.00 0.00 0.00 0.00 0.00 0.00 0.00 0.00 0.00 0.00 0.00 0.00 0.00 0.00 0.00 0.00 0.00 0.00 0.00 0.00 0.00 0.00 0.00 0.00 0.00 0.00
0.02 0.00 0.01 0.05 0.12 0.19 0.06 0.00 0.00 0.00 0.00 0.00 0.00 0.00 0.00 0.00 0.00 0.00 0.00 0.00 0.00 0.00 0.00 0.00 0.00 0.00 0.00 0.00 0.00 0.00 0.00 0.00 0.00 0.00 0.00 0.00 0.00 0.00 0.00 0.00 0.00 0.00 0.00
0.06 0.02 0.04 0.05 0.07 0.17 0.04 0.00 0.00 0.00 0.00 0.00 0.00 0.00 0.00 0.00 0.00 0.00 0.00 0.00 0.00 0.00 0.00 0.00 0.00 0.00 0.00 0.00 0.00 0.00 0.00 0.00 0.00 0.00 0.00 0.00 0.00 0.00 0.00 0.00 0.00 0.00 0.00
0.04 0.02 0.05 0.04 0.04 0.12 0.02 0.00 0.00 0.00 0.00 0.00 0.00 0.00 0.00 0.00 0.00 0.00 0.00 0.00 0.00 0.00 0.00 0.00 0.00 0.00 0.00 0.00 0.00 0.00 0.00 0.00 0.00 0.00 0.00 0.00 0.00 0.00 0.00 0.00 0.00 0.00 0.00
0.07 0.02 0.04 0.13 0.11 0.04 0.00 0.00 0.00 0.00 0.00 0.00 0.00 0.00 0.00 0.00 0.00 0.00 0.00 0.00 0.00 0.00 0.00 0.00 0.00 0.00 0.00 0.00 0.00 0.00 0.00 0.00 0.00 0.00 0.00 0.00 0.00 0.00 0.00 0.00 0.00 0.00 0.00
0.01 0.00 0.01 0.02 0.06 0.00 0.00 0.00 0.00 0.00 0.00 0.00 0.00 0.00 0.00 0.00 0.00 0.00 0.00 0.00 0.00 0.00 0.00 0.00 0.00 0.00 0.00 0.00 0.00 0.00 0.00 0.00 0.00 0.00 0.00 0.00 0.00 0.00 0.00 0.00 0.00 0.00 0.00
0.00 0.00 0.00 0.04 0.00 0.00 0.00 0.00 0.00 0.00 0.00 0.00 0.00 0.00 0.00 0.00 0.00 0.00 0.00 0.00 0.00 0.00 0.00 0.00 0.00 0.00 0.00 0.00 0.00 0.00 0.00 0.00 0.00 0.00 0.00 0.00 0.00 0.00 0.00 0.00 0.00 0.00 0.00
0.00 0.00 0.01 0.02 0.00 0.00 0.00 0.00 0.00 0.00 0.00 0.00 0.00 0.00 0.00 0.00 0.00 0.00 0.00 0.00 0.00 0.00 0.00 0.00 0.00 0.00 0.00 0.00 0.00 0.00 0.00 0.00 0.00 0.00 0.00 0.00 0.00 0.00 0.00 0.00 0.00 0.00 0.00
0.00 0.00 0.01 0.01 0.00 0.00 0.00 0.00 0.00 0.00 0.00 0.00 0.00 0.00 0.00 0.00 0.00 0.00 0.00 0.00 0.00 0.00 0.00 0.00 0.00 0.00 0.00 0.00 0.00 0.00 0.00 0.00 0.00 0.00 0.00 0.00 0.00 0.00 0.00 0.00 0.00 0.00 0.00
0.00 0.00 0.00 0.00 0.00 0.00 0.00 0.00 0.00 0.00 0.00 0.00 0.00 0.00 0.00 0.00 0.00 0.00 0.00 0.00 0.00 0.00 0.00 0.00 0.00 0.00 0.00 0.00 0.00 0.00 0.00 0.00 0.00 0.00 0.00 0.00 0.00 0.00 0.00 0.00 0.00 0.00 0.00
0.00 0.00 0.00 0.00 0.00 0.00 0.00 0.00 0.00 0.00 0.00 0.00 0.00 0.00 0.00 0.00 0.00 0.00 0.00 0.00 0.00 0.00 0.00 0.00 0.00 0.00 0.00 0.00 0.00 0.00 0.00 0.00 0.00 0.00 0.00 0.00 0.00 0.00 0.00 0.00 0.00 0.00 0.00
0.00 0.00 0.00 0.00 0.00 0.00 0.00 0.00 0.00 0.00 0.00 0.00 0.00 0.00 0.00 0.00 0.00 0.00 0.00 0.00 0.00 0.00 0.00 0.00 0.00 0.00 0.00 0.00 0.00 0.00 0.00 0.00 0.00 0.00 0.00 0.00 0.00 0.00 0.00 0.00 0.00 0.00 0.00
0.00 0.00 0.00 0.00 0.00 0.00 0.00 0.00 0.00 0.00 0.00 0.00 0.00 0.00 0.00 0.00 0.00 0.00 0.00 0.00 0.00 0.00 0.00 0.00 0.00 0.00 0.00 0.00 0.00 0.00 0.00 0.00 0.00 0.00 0.00 0.00 0.00 0.00 0.00 0.00 0.00 0.00 0.00
0.01 0.00 0.00 0.00 0.00 0.00 0.00 0.00 0.00 0.00 0.00 0.00 0.00 0.00 0.00 0.00 0.00 0.00 0.00 0.00 0.00 0.00 0.00 0.00 0.00 0.00 0.00 0.00 0.00 0.00 0.00 0.00 0.00 0.00 0.00 0.00 0.00 0.00 0.00 0.00 0.00 0.00 0.00
0.02 0.01 0.00 0.00 0.00 0.00 0.00 0.00 0.00 0.01 0.00 0.00 0.00 0.00 0.00 0.00 0.00 0.00 0.00 0.00 0.00 0.00 0.00 0.00 0.00 0.00 0.00 0.00 0.00 0.00 0.00 0.00 0.00 0.00 0.00 0.00 0.00 0.00 0.00 0.00 0.00 0.00 0.00
0.03 0.03 0.00 0.00 0.00 0.00 0.00 0.00 0.00 0.00 0.00 0.00 0.00 0.00 0.00 0.00 0.00 0.00 0.00 0.00 0.00 0.00 0.00 0.00 0.00 0.00 0.00 0.00 0.00 0.00 0.00 0.00 0.00 0.00 0.00 0.00 0.00 0.00 0.00 0.00 0.00 0.00 0.00
0.00 0.02 0.02 0.01 0.00 0.00 0.00 0.00 0.00 0.00 0.00 0.00 0.00 0.00 0.00 0.00 0.00 0.00 0.00 0.00 0.00 0.00 0.00 0.00 0.00 0.00 0.00 0.00 0.00 0.00 0.00 0.00 0.00 0.00 0.00 0.00 0.00 0.00 0.00 0.00 0.00 0.00 0.00
0.00 0.04 0.04 0.02 0.01 0.00 0.00 0.00 0.00 0.00 0.00 0.00 0.00 0.00 0.00 0.00 0.00 0.00 0.00 0.00 0.00 0.00 0.00 0.00 0.00 0.00 0.00 0.00 0.00 0.00 0.00 0.00 0.00 0.00 0.00 0.00 0.00 0.00 0.00 0.00 0.00 0.00 0.00
0.05 0.15 0.04 0.05 0.02 0.00 0.01 0.00 0.00 0.00 0.00 0.00 0.00 0.00 0.00 0.00 0.00 0.00 0.00 0.00 0.00 0.00 0.00 0.00 0.00 0.00 0.00 0.00 0.00 0.00 0.00 0.00 0.00 0.00 0.00 0.00 0.00 0.00 0.00 0.00 0.00 0.00 0.00
0.04 0.13 0.05 0.02 0.02 0.02 0.01 0.00 0.00 0.00 0.00 0.00 0.00 0.00 0.00 0.00 0.00 0.00 0.00 0.00 0.00 0.00 0.00 0.00 0.00 0.00 0.00 0.00 0.00 0.00 0.00 0.00 0.00 0.00 0.00 0.00 0.00 0.00 0.00 0.00 0.00 0.00 0.00
0.07 0.09 0.01 0.00 0.00 0.00 0.00 0.00 0.00 0.00 0.00 0.00 0.00 0.00 0.00 0.00 0.00 0.00 0.00 0.00 0.00 0.00 0.00 0.00 0.00 0.00 0.00 0.00 0.00 0.00 0.00 0.00 0.00 0.00 0.00 0.00 0.00 0.00 0.00 0.00 0.00 0.00 0.00
MSLP
1014.99 1014.97 1015.19 1015.79 1016.17 1016.67 1017.29 1017.67 1017.81 1017.77 1017.99 1017.98 1018.38 1018.43 1018.60 1018.97 1019.37 1019.71 1019.88 1020.12 1020.25 1020.13 1020.03 1020.08 1020.17 1020.20 1020.31 1020.47 1020.37 1020.17 1020.19 1020.27 1020.17 1020.24 1020.03 1019.88 1019.87 1020.00 1019.92 1019.70 1019.57 1019.50 1019.45
1014.25 1014.86 1015.16 1015.72 1016.35 1017.01 1017.30 1017.85 1017.97 1018.06 1018.10 1018.30 1018.73 1018.88 1018.92 1019.30 1019.61 1019.91 1020.07 1020.37 1020.33 1020.36 1020.40 1020.45 1020.34 1020.50 1020.50 1020.60 1020.50 1020.39 1020.03 1020.12 1020.20 1020.22 1020.26 1020.32 1020.24 1020.40 1020.40 1020.32 1019.98 1019.95 1019.82
1014.85 1015.25 1015.45 1015.87 1016.35 1017.18 1017.58 1017.94 1018.31 1018.29 1018.50 1018.60 1018.99 1019.18 1019.30 1019.60 1019.79 1020.17 1020.41 1020.47 1020.45 1020.65 1020.70 1020.76 1020.66 1020.57 1020.88 1020.97 1020.57 1020.28 1020.07 1020.02 1020.20 1020.51 1020.49 1020.62 1020.64 1020.52 1020.45 1020.53 1020.46 1020.51 1020.27
1014.68 1015.03 1015.24 1015.49 1016.39 1017.05 1017.69 1018.08 1018.44 1018.67 1018.81 1018.87 1019.00 1019.50 1019.60 1019.93 1020.03 1020.11 1020.53 1020.84 1020.91 1020.79 1021.02 1021.03 1020.99 1020.77 1020.90 1021.22 1021.01 1020.82 1020.49 1020.54 1020.63 1020.87 1020.98 1020.99 1020.72 1020.65 1020.85 1020.94 1021.00 1020.81 1020.77
1015.10 1015.08 1015.54 1015.97 1016.47 1017.56 1017.91 1018.46 1018.66 1019.02 1019.13 1019.12 1019.14 1019.79 1019.78 1020.07 1020.12 1020.31 1020.69 1020.98 1021.02 1021.02 1021.11 1021.07 1021.11 1021.07 1021.19 1021.09 1021.56 1021.22 1021.21 1021.13 1021.20 1021.39 1021.51 1021.32 1021.03 1021.23 1021.06 1021.16 1021.26 1021.44 1021.39
1015.56 1015.63 1015.91 1016.23 1016.99 1017.80 1018.06 1018.47 1019.06 1019.24 1019.16 1019.12 1019.28 1019.91 1020.14 1020.18 1020.32 1020.58 1020.86 1021.08 1021.17 1021.41 1021.50 1021.47 1021.33 1021.23 1021.17 1021.23 1021.54 1021.69 1021.61 1021.54 1021.81 1021.73 1021.75 1021.60 1021.40 1021.38 1021.24 1021.32 1021.53 1021.35 1021.52
1015.90 1015.92 1016.05 1016.89 1017.33 1017.81 1018.36 1018.98 1019.50 1019.54 1019.27 1019.53 1019.61 1020.03 1020.30 1020.29 1020.47 1020.70 1021.07 1021.22 1021.50 1021.66 1021.72 1021.75 1021.65 1021.62 1021.41 1021.46 1021.48 1021.84 1021.66 1021.84 1022.21 1022.26 1022.23 1021.98 1021.74 1021.63 1021.48 1021.65 1021.58 1021.59 1021.76
1016.49 1016.07 1016.39 1017.01 1017.73 1018.29 1018.96 1019.39 1019.77 1019.66 1019.66 1019.89 1019.80 1020.25 1020.43 1020.48 1020.69 1020.90 1021.38 1021.62 1021.82 1021.76 1021.93 1021.85 1021.83 1021.84 1021.92 1021.83 1021.79 1022.19 1021.92 1022.19 1022.52 1022.66 1022.69 1022.50 1022.05 1021.89 1021.96 1021.96 1022.04 1021.83 1021.86
1015.98 1016.00 1016.95 1017.05 1017.24 1019.09 1019.44 1019.70 1019.57 1019.70 1019.83 1019.91 1020.07 1020.25 1020.57 1020.82 1020.81 1021.19 1021.39 1021.66 1021.77 1021.99 1022.00 1021.90 1021.98 1022.03 1021.93 1021.78 1022.12 1022.20 1022.32 1022.54 1022.83 1022.90 1022.76 1022.81 1022.41 1022.16 1022.21 1022.26 1022.33 1022.33 1022.36
1018.04 1018.34 1017.42 1017.44 1018.46 1018.92 1019.41 1019.34 1019.73 1019.79 1019.95 1020.12 1020.27 1020.64 1020.69 1020.86 1021.01 1021.27 1021.53 1021.71 1021.76 1021.94 1022.05 1022.20 1022.37 1022.00 1021.89 1021.89 1021.99 1022.31 1022.68 1022.83 1022.96 1022.92 1023.07 1022.86 1022.46 1022.47 1022.47 1022.43 1022.73 1022.71 1022.71
1019.31 1019.56 1018.69 1018.08 1019.00 1019.30 1018.98 1019.35 1019.81 1019.96 1020.24 1020.29 1020.58 1020.83 1021.00 1021.20 1021.36 1021.55 1021.66 1021.90 1021.98 1022.25 1022.30 1022.31 1022.47 1022.31 1022.41 1022.40 1022.25 1022.39 1022.65 1022.94 1023.06 1023.05 1023.05 1022.81 1022.68 1022.70 1022.77 1022.85 1022.93 1023.00 1023.20
1019.28 1019.69 1018.46 1018.52 1018.79 1019.15 1019.34 1019.68 1019.84 1020.28 1020.55 1020.69 1020.84 1020.95 1021.07 1021.38 1021.75 1021.89 1022.14 1022.06 1022.23 1022.32 1022.52 1022.53 1022.62 1022.61 1022.69 1022.85 1022.77 1022.69 1022.92 1022.96 1023.09 1023.23 1023.04 1022.89 1022.81 1022.81 1022.92 1023.06 1023.15 1023.25 1023.35
1019.02 1019.06 1019.01 1018.86 1018.99 1019.29 1019.34 1019.68 1020.21 1020.29 1020.72 1020.84 1021.00 1021.23 1021.46 1021.76 1021.87 1022.00 1022.38 1022.48 1022.69 1022.71 1022.75 1022.68 1022.99 1023.11 1023.14 1023.14 1023.19 1023.21 1023.18 1023.29 1023.43 1023.30 1023.05 1022.83 1022.83 1022.87 1022.93 1023.05 1023.21 1023.39 1023.46
1019.13 1019.25 1019.14 1018.98 1019.09 1019.42 1019.69 1020.04 1019.95 1020.54 1020.71 1020.94 1020.91 1021.16 1021.60 1022.16 1022.40 1022.48 1022.58 1022.71 1022.89 1023.11 1023.08 1023.20 1023.41 1023.33 1023.43 1023.52 1023.59 1023.45 1023.38 1023.54 1023.54 1023.47 1023.37 1023.06 1023.01 1022.85 1022.92 1023.13 1023.13 1023.39 1023.56
1018.81 1018.89 1018.93 1018.80 1019.10 1019.65 1019.77 1019.91 1020.20 1020.60 1020.82 1020.98 1021.21 1021.41 1021.69 1022.16 1022.43 1022.68 1023.01 1022.84 1023.12 1023.14 1023.21 1023.42 1023.53 1023.68 1023.53 1023.84 1023.83 1023.93 1023.85 1023.81 1023.92 1023.74 1023.49 1023.34 1023.35 1023.10 1023.05 1023.26 1023.32 1023.40 1023.51
1018.65 1018.59 1018.68 1018.93 1019.34 1019.51 1019.73 1020.40 1020.81 1021.11 1021.08 1021.37 1021.31 1021.58 1021.66 1022.17 1022.50 1022.84 1023.08 1023.16 1023.28 1023.30 1023.67 1023.81 1023.96 1024.00 1024.21 1024.21 1024.22 1024.07 1024.01 1024.09 1024.06 1024.03 1023.74 1023.51 1023.38 1023.29 1023.24 1023.31 1023.46 1023.53 1023.79
1018.15 1018.62 1018.89 1019.00 1019.27 1019.56 1020.43 1020.81 1021.06 1021.14 1021.23 1021.57 1021.71 1021.91 1021.99 1022.12 1022.57 1022.83 1023.06 1023.32 1023.69 1023.77 1023.96 1024.21 1024.37 1024.26 1024.49 1024.37 1024.47 1024.37 1024.38 1024.45 1024.48 1024.29 1024.12 1023.71 1023.51 1023.38 1023.45 1023.66 1023.73 1023.82 1023.86
1017.97 1018.50 1018.95 1019.00 1019.44 1019.73 1020.43 1020.76 1021.05 1021.35 1021.35 1021.75 1022.06 1021.94 1022.22 1022.12 1022.49 1022.86 1023.28 1023.74 1023.91 1024.00 1024.22 1024.58 1024.48 1024.69 1024.94 1025.04 1024.98 1024.94 1025.04 1024.92 1024.98 1024.79 1024.34 1024.04 1024.06 1024.12 1023.98 1024.07 1024.04 1024.08 1024.11
1017.39 1017.94 1018.70 1019.14 1019.49 1019.93 1020.32 1020.77 1021.02 1021.57 1021.82 1021.88 1022.22 1022.26 1022.53 1022.28 1022.68 1023.11 1023.68 1023.85 1024.00 1024.42 1024.74 1024.61 1024.91 1025.12 1025.25 1025.36 1025.37 1025.45 1025.45 1025.44 1025.43 1025.05 1024.87 1024.67 1024.50 1024.56 1024.78 1024.66 1024.66 1024.61 1024.48
1016.91 1017.73 1018.43 1018.94 1019.50 1019.92 1020.25 1020.63 1021.65 1021.72 1021.79 1022.05 1022.15 1022.43 1022.58 1022.42 1022.70 1023.28 1023.51 1023.87 1024.21 1024.62 1024.87 1024.89 1025.13 1025.31 1025.49 1025.67 1025.66 1025.74 1025.70 1025.75 1025.76 1025.73 1025.60 1025.31 1025.21 1025.17 1025.05 1025.07 1025.07 1024.89 1024.45
1017.29 1017.61 1018.08 1018.66 1019.26 1019.61 1020.50 1020.94 1021.35 1021.57 1021.81 1022.13 1022.32 1022.42 1022.53 1022.64 1022.96 1023.26 1023.75 1024.27 1024.60 1024.72 1025.00 1025.12 1025.51 1025.65 1025.77 1025.76 1025.99 1026.19 1025.97 1026.08 1026.10 1026.08 1025.89 1026.09 1025.96 1025.75 1025.53 1025.36 1025.21 1025.20 1025.01
1017.21 1017.71 1018.13 1018.48 1019.05 1019.53 1019.77 1020.10 1020.52 1021.13 1021.86 1022.12 1022.47 1022.70 1022.76 1022.80 1023.00 1023.41 1024.00 1024.40 1024.57 1024.89 1025.24 1025.47 1025.67 1025.88 1026.00 1026.00 1026.36 1026.73 1026.81 1026.55 1026.23 1026.12 1026.30 1026.21 1026.39 1026.14 1026.05 1025.83 1025.65 1025.45 1025.36
1017.10 1017.38 1018.13 1018.64 1018.90 1019.08 1019.44 1020.07 1020.71 1021.33 1022.07 1022.74 1023.06 1023.03 1023.04 1023.07 1023.43 1023.83 1024.29 1024.66 1025.00 1025.24 1025.60 1025.69 1025.72 1025.81 1026.11 1026.29 1026.21 1026.51 1027.02 1027.27 1027.05 1026.56 1026.35 1026.29 1026.19 1026.25 1026.28 1026.16 1026.06 1025.88 1025.78
1016.37 1017.29 1017.69 1018.31 1018.60 1019.10 1019.42 1019.92 1020.28 1021.03 1021.91 1022.60 1022.75 1022.95 1023.20 1023.41 1023.89 1024.26 1024.64 1024.90 1025.23 1025.47 1025.66 1025.58 1025.41 1025.77 1026.01 1026.47 1026.54 1026.46 1026.58 1026.83 1027.22 1027.45 1026.65 1026.26 1026.10 1026.05 1026.02 1026.11 1026.16 1025.88 1025.75
1016.45 1016.84 1017.25 1018.23 1018.64 1019.14 1019.48 1019.74 1020.20 1021.09 1021.75 1022.28 1022.86 1023.25 1023.79 1024.17 1024.55 1024.90 1024.99 1025.25 1025.40 1025.54 1025.60 1025.57 1025.76 1025.90 1026.10 1026.60 1026.72 1026.73 1026.81 1026.85 1026.89 1027.12 1027.16 1026.81 1026.34 1025.89 1025.64 1025.79 1025.90 1025.73 1025.56
1016.57 1017.07 1017.66 1018.08 1018.75 1019.07 1019.47 1019.92 1020.22 1020.97 1021.95 1022.75 1023.39 1023.91 1024.37 1024.94 1025.28 1025.27 1025.24 1025.28 1025.39 1025.58 1025.54 1025.67 1025.82 1025.92 1026.19 1026.41 1026.57 1026.69 1026.78 1026.94 1026.91 1026.99 1027.25 1026.97 1026.92 1026.31 1025.82 1025.55 1025.63 1025.56 1025.29
Thickness
5720 5719 5716 5710 5706 5702 5696 5693 5692 5693 5690 5690 5687 5687 5685 5682 5677 5673 5671 5669 5668 5669 5670 5669 5667 5665 5664 5662 5663 5664 5661 5658 5658 5655 5656 5656 5655 5653 5653 5654 5655 5655 5654
5718 5714 5711 5706 5701 5694 5692 5688 5688 5686 5686 5684 5681 5680 5680 5677 5673 5671 5669 5667 5667 5667 5665 5664 5665 5662 5662 5660 5661 5660 5662 5659 5656 5654 5653 5651 5651 5647 5646 5647 5650 5648 5647
5706 5702 5702 5698 5696 5688 5685 5682 5679 5680 5678 5678 5676 5674 5673 5672 5670 5667 5666 5667 5667 5664 5662 5661 5661 5661 5657 5655 5659 5660 5660 5658 5656 5650 5650 5648 5645 5644 5645 5643 5643 5641 5642
5700 5698 5697 5697 5691 5684 5680 5676 5674 5671 5671 5672 5673 5669 5668 5666 5667 5668 5664 5661 5661 5662 5659 5657 5656 5657 5655 5651 5652 5652 5654 5654 5651 5646 5644 5641 5642 5641 5638 5636 5634 5635 5635
5691 5692 5689 5687 5685 5674 5670 5666 5666 5664 5665 5667 5668 5662 5663 5662 5664 5664 5661 5660 5659 5658 5656 5655 5652 5651 5648 5648 5643 5645 5645 5644 5642 5640 5639 5637 5638 5633 5633 5632 5630 5626 5625
5681 5681 5681 5679 5672 5663 5662 5660 5657 5658 5660 5663 5663 5657 5656 5659 5660 5660 5657 5655 5654 5651 5649 5648 5648 5647 5645 5641 5637 5639 5637 5636 5633 5634 5631 5630 5631 5629 5628 5626 5623 5624 5620
5671 5670 5674 5666 5662 5655 5651 5646 5645 5649 5655 5656 5656 5653 5652 5656 5658 5657 5652 5651 5648 5645 5643 5642 5641 5639 5640 5638 5634 5631 5632 5630 5626 5624 5623 5623 5622 5621 5622 5619 5617 5616 5612
5659 5665 5665 5660 5654 5646 5640 5639 5639 5646 5649 5649 5651 5649 5652 5654 5653 5651 5648 5646 5642 5642 5639 5638 5635 5632 5628 5627 5627 5623 5624 5620 5617 5615 5614 5615 5615 5614 5611 5610 5608 5608 5606
5653 5657 5653 5649 5652 5634 5633 5636 5642 5644 5645 5647 5650 5652 5650 5650 5651 5647 5646 5641 5640 5636 5633 5633 5630 5626 5625 5624 5617 5616 5615 5612 5609 5606 5606 5605 5605 5606 5603 5599 5599 5598 5596
5645 5641 5644 5640 5638 5642 5635 5641 5640 5641 5645 5647 5648 5646 5647 5647 5645 5643 5639 5637 5637 5632 5628 5625 5621 5625 5623 5619 5617 5610 5606 5604 5602 5602 5599 5598 5597 5596 5594 5593 5587 5587 5586
5639 5630 5641 5648 5637 5634 5641 5640 5637 5639 5640 5643 5643 5643 5644 5643 5641 5638 5636 5634 5631 5625 5622 5621 5616 5616 5613 5610 5609 5605 5602 5599 5596 5594 5591 5589 5587 5584 5583 5582 5581 5579 5575
5637 5634 5637 5639 5641 5636 5634 5635 5639 5637 5637 5640 5641 5643 5643 5640 5634 5631 5628 5628 5623 5621 5616 5614 5611 5608 5605 5602 5601 5599 5595 5592 5588 5584 5582 5578 5577 5576 5574 5572 5569 5568 5567
5635 5637 5636 5639 5635 5635 5636 5638 5635 5639 5638 5639 5639 5638 5635 5630 5630 5629 5623 5621 5615 5613 5611 5610 5604 5600 5598 5596 5593 5590 5588 5585 5582 5579 5575 5573 5569 5566 5565 5563 5560 5558 5556
5629 5630 5635 5637 5637 5636 5637 5637 5641 5637 5637 5637 5637 5635 5630 5624 5623 5622 5619 5616 5612 5609 5608 5603 5598 5595 5592 5588 5584 5582 5580 5575 5572 5570 5568 5566 5563 5561 5558 5553 5552 5550 5546
5637 5638 5638 5641 5639 5635 5636 5638 5639 5637 5636 5634 5632 5630 5626 5622 5619 5615 5612 5612 5607 5605 5602 5597 5593 5589 5588 5581 5577 5572 5569 5565 5561 5559 5558 5555 5552 5550 5547 5544 5542 5539 5538
5641 5643 5643 5641 5637 5637 5639 5636 5633 5631 5632 5628 5629 5626 5624 5618 5615 5611 5608 5606 5603 5599 5593 5589 5585 5583 5577 5572 5567 5564 5560 5555 5550 5547 5545 5544 5540 5537 5535 5533 5530 5528 5526
5643 5641 5639 5639 5639 5639 5633 5631 5629 5628 5628 5625 5622 5619 5617 5616 5610 5608 5605 5603 5596 5591 5586 5581 5576 5574 5568 5564 5557 5552 5548 5542 5537 5534 5531 5530 5526 5524 5521 5518 5517 5515 5514
5645 5641 5638 5640 5639 5638 5632 5630 5628 5624 5625 5619 5615 5615 5612 5613 5609 5604 5600 5595 5590 5584 5578 5571 5569 5562 5556 5550 5545 5539 5532 5527 5522 5518 5516 5515 5511 5507 5505 5503 5501 5500 5500
5648 5645 5640 5638 5637 5634 5631 5626 5624 5617 5615 5615 5612 5611 5608 5610 5603 5598 5591 5587 5581 5572 5565 5561 5555 5548 5542 5536 5531 5525 5518 5513 5508 5504 5501 5499 5497 5493 5488 5487 5484 5482 5482
5652 5647 5642 5638 5634 5631 5629 5624 5610 5612 5614 5611 5612 5607 5604 5603 5597 5590 5585 5577 5568 5559 5552 5549 5543 5537 5530 5523 5519 5512 5506 5499 5495 5490 5486 5483 5481 5478 5475 5471 5468 5466 5465
5645 5645 5641 5637 5633 5630 5619 5616 5614 5614 5612 5609 5605 5601 5597 5593 5587 5581 5572 5561 5552 5548 5544 5538 5530 5523 5516 5512 5505 5498 5493 5486 5481 5476 5472 5467 5463 5458 5455 5451 5450 5447 5444
5646 5645 5640 5637 5630 5627 5625 5623 5620 5615 5607 5603 5598 5591 5586 5581 5575 5566 5556 5549 5544 5538 5530 5524 5517 5509 5503 5498 5492 5482 5477 5473 5471 5466 5459 5453 5446 5440 5434 5429 5426 5422 5419
5646 5644 5637 5633 5632 5630 5627 5620 5613 5608 5600 5592 5585 5581 5576 5571 5563 5556 5549 5541 5533 5526 5517 5511 5506 5500 5493 5486 5482 5473 5463 5455 5451 5451 5447 5441 5436 5427 5417 5409 5401 5395 5391
5649 5639 5638 5633 5631 5626 5623 5617 5613 5606 5596 5585 5581 5575 5567 5561 5553 5545 5536 5530 5523 5515 5507 5501 5496 5490 5482 5473 5466 5461 5454 5448 5438 5432 5432 5428 5421 5411 5401 5390 5380 5372 5364
5643 5639 5638 5630 5626 5622 5618 5615 5608 5597 5589 5581 5572 5565 5557 5550 5541 5532 5526 5518 5510 5503 5496 5490 5483 5476 5468 5458 5451 5445 5439 5432 5425 5417 5411 5407 5401 5392 5384 5372 5360 5348 5336
5639 5636 5629 5626 5620 5616 5612 5606 5601 5592 5581 5571 5560 5551 5541 5532 5524 5517 5510 5504 5497 5489 5483 5477 5470 5463 5455 5447 5439 5432 5425 5417 5410 5401 5391 5386 5378 5371 5364 5351 5336 5323 5311